Regional Weather Roundup
Issued by NWS

Home | Current Version | Previous Version | Graphics & Text | Print | Product List | Glossary On
Versions: 1 2 3 4 5 6 7 8 9 10 11 12 13 14 15 16 17 18 19 20 21 22 23 24 25 26 27
000
ASUS45 KCYS 221510
RWRWY

WYOMING REGIONAL WEATHER ROUNDUP
NATIONAL WEATHER SERVICE CHEYENNE WY
800 AM MST WED NOV 22 2017

NOTE:  "FAIR" INDICATES FEW OR NO CLOUDS BELOW 12,000 FEET
WITH NO SIGNIFICANT WEATHER AND/OR OBSTRUCTIONS TO VISIBILITY.

WYZ001-221600-
YELLOWSTONE NATIONAL PARK

CITY           SKY/WX    TMP DP  RH WIND       PRES   REMARKS
LK YELLOWSTONE   N/A     37  37 100 W8G16     30.39R WCI  31
W YELLOWSTONE  NOT AVBL

$$
WYZ002>013-054>058-071-098>099-221600-
NORTHERN WYOMING

CITY           SKY/WX    TMP DP  RH WIND       PRES   REMARKS
JACKSON        CLOUDY    45  39  81 S10       30.37R
CODY           FAIR      55  38  52 MISG      30.20R
GREYBULL       FAIR      32  29  88 SE7       30.19R WCI  26
WORLAND        FAIR      31  29  92 E3        30.20R
SHERIDAN       FAIR      42  36  79 NE6       30.05R
BUFFALO        FAIR      55  29  36 S7        30.10R
GILLETTE       FAIR      50  33  52 SW14      30.08R
HULETT         FAIR      45  32  61 SW9       30.08R
NEWCASTLE      FAIR      30  27  86 NW3       30.12R

$$
WYZ014>020-022>026-101>103-221600-
CENTRAL WYOMING

CITY           SKY/WX    TMP DP  RH WIND       PRES   REMARKS
BIG PINEY      LGT RAIN  35  35 100 N5        30.42R WCI  31
PINEDALE       DRIZZLE   34  34 100 CALM      30.42S
DUBOIS         PTSUNNY   43  34  70 NW14      30.30R
LANDER         FAIR      43  31  62 SW5       30.25R
RIVERTON       FAIR      44  32  62 SW13      30.26R
CASPER         FAIR      47  36  65 SW17      30.22S
DOUGLAS        FAIR      47  37  68 NW13      30.17R

$$
WYZ021-027>030-104>119-221600-
SOUTHERN WYOMING

CITY           SKY/WX    TMP DP  RH WIND       PRES   REMARKS
EVANSTON       FAIR      38  35  89 SW13      30.46R WCI  30
KEMMERER       FAIR      37  36  93 SW9       30.45R WCI  31
FORT BRIDGER   FAIR      43  38  82 SW6       30.48R
ROCK SPRINGS   FAIR      41  35  79 SW17      30.41R
DIXON          FAIR      39  34  81 W3        30.46S
RAWLINS        LGT RAIN  43  37  79 W29G36    30.34S
SARATOGA       FAIR      43  36  75 NW3       30.41R
LARAMIE        FAIR      43  36  76 SW16      30.32R
CHEYENNE       FAIR      50  36  58 NW16G24   30.22S
TORRINGTON     FAIR      32  29  88 CALM      30.14R
PINE BLUFFS    FAIR      36  32  87 MISG      30.22S

$$




USA.gov is the U.S. government's official web portal to all federal, state and local government web resources and services.